Weather History for Dayton, OH

Change the Weather History Date:

Tuesday, November 5, 2013

  Actual Average Record
Temperature  
Mean Temperature 53 °F 47 °F  
Max Temperature 59 °F 56 °F 76 °F (1977)
Min Temperature 47 °F 38 °F 12 °F (1908)
Degree Days  
Heating Degree Days 12 18  
Month to date heating degree days 74 85  
Since 1 July heating degree days 461 532  
Cooling Degree Days 0 0  
Month to date cooling degree days 0 0  
Year to date cooling degree days 1062 891  
Growing Degree Days 2 (Base 50)    
Moisture  
Dew Point 42 °F    
Average Humidity 70    
Maximum Humidity 83    
Minimum Humidity 57    
Precipitation  
Precipitation T in 0.11 in 2.18 in (1948)
Month to date precipitation T 0.54  
Year to date precipitation 30.35 35.08  
Snow  
Snow 0.00 in 0.10 in 0.50 in (1992)
Month to date snowfall 0.0 0.1  
Since 1 July snowfall 1.0 0.5  
Since 1 September snowfall 1.0 0.5  
Snow Depth 0.00 in    
Sea Level Pressure  
Sea Level Pressure 30.34 in    
Wind  
Wind Speed 7 mph (SSE)    
Max Wind Speed 13 mph    
Max Gust Speed 16 mph    
Visibility 10 miles    
Events Rain    
T = Trace of Precipitation, MM = Missing Value Source: NWS Daily Summary

Daily Weather History Graph

Daily Weather History Graph

Search for Another Location

Airport:

Trip Planner

Search our weather history database for the weather conditions in past years. The results will help you decide how hot, cold, wet, or windy it might be!

Date:

Astronomy

Nov. 05, 2013 Rise Set
Actual Time 7:10 AM EST 5:29 PM EST
Civil Twilight 6:42 AM EST 5:58 PM EST
Nautical Twilight 6:10 AM EST 6:30 PM EST
Astronomical Twilight 5:38 AM EST 7:01 PM EST
Moon 9:24 AM EST (11/5) 7:30 PM EST (11/5)
Length of Visible Light 11h 15m
Length of Day
10h 19m
Waxing Crescent, 6% of the Moon is Illuminated
Nov 5
Waxing Crescent
Nov 10
First Quarter
Nov 17
Full
Nov 25
Last Quarter
Dec 2
New

Hourly Weather History & Observations

Time (EST) Temp. Dew Point Humidity Pressure Visibility Wind Dir Wind Speed Gust Speed Precip Events Conditions
12:56 AM 52.0 °F 41.0 °F 66% 30.35 in 10.0 mi SSE 4.6 mph - N/A   Overcast
1:56 AM 48.9 °F 41.0 °F 74% 30.36 in 10.0 mi SE 5.8 mph - N/A   Mostly Cloudy
2:56 AM 50.0 °F 41.0 °F 71% 30.36 in 10.0 mi SSE 5.8 mph - N/A   Overcast
3:56 AM 50.0 °F 41.0 °F 71% 30.36 in 10.0 mi South 5.8 mph - N/A   Overcast
4:56 AM 52.0 °F 39.9 °F 63% 30.38 in 10.0 mi South 8.1 mph - N/A   Overcast
5:56 AM 50.0 °F 45.0 °F 83% 30.39 in 10.0 mi WSW 10.4 mph - 0.00 in Rain Light Rain
6:56 AM 51.1 °F 45.0 °F 80% 30.39 in 10.0 mi WSW 5.8 mph - N/A   Overcast
7:56 AM 51.1 °F 46.0 °F 83% 30.40 in 10.0 mi South 5.8 mph - N/A   Overcast
8:56 AM 52.0 °F 46.0 °F 80% 30.41 in 10.0 mi SSE 6.9 mph - N/A   Overcast
9:56 AM 54.0 °F 46.0 °F 75% 30.41 in 10.0 mi SSE 8.1 mph - N/A   Overcast
10:56 AM 57.0 °F 44.1 °F 62% 30.42 in 10.0 mi South 10.4 mph - N/A   Overcast
11:56 AM 57.9 °F 42.1 °F 56% 30.41 in 10.0 mi SSW 6.9 mph - N/A   Overcast
12:56 PM 57.9 °F 42.1 °F 56% 30.38 in 10.0 mi SSW 9.2 mph - N/A   Mostly Cloudy
1:56 PM 57.0 °F 42.1 °F 57% 30.35 in 10.0 mi South 8.1 mph - N/A   Overcast
2:56 PM 57.0 °F 42.1 °F 57% 30.34 in 10.0 mi South 8.1 mph - N/A   Overcast
3:56 PM 57.0 °F 44.1 °F 62% 30.32 in 10.0 mi SE 4.6 mph - N/A   Mostly Cloudy
4:56 PM 57.0 °F 43.0 °F 59% 30.30 in 10.0 mi SSE 4.6 mph - N/A   Mostly Cloudy
5:56 PM 55.9 °F 42.1 °F 60% 30.30 in 10.0 mi SSE 3.5 mph - N/A   Mostly Cloudy
6:56 PM 51.1 °F 41.0 °F 68% 30.30 in 10.0 mi SE 5.8 mph - N/A   Mostly Cloudy
7:56 PM 50.0 °F 41.0 °F 71% 30.30 in 10.0 mi SE 5.8 mph - N/A   Mostly Cloudy
8:56 PM 46.9 °F 39.0 °F 74% 30.29 in 10.0 mi SE 5.8 mph - N/A   Scattered Clouds
9:56 PM 48.0 °F 39.9 °F 74% 30.27 in 10.0 mi SSE 8.1 mph - N/A   Partly Cloudy
10:56 PM 48.9 °F 39.9 °F 71% 30.24 in 10.0 mi SSE 10.4 mph - N/A   Partly Cloudy
11:56 PM 51.1 °F 39.0 °F 63% 30.22 in 10.0 mi SSE 10.4 mph - N/A   Mostly Cloudy